Showing default

PORCUPINE 2, 1577

Orbit data source: Space-Track

PORCUPINE 2, 1577 is a payload satellite owned by NRL (US) in LEO that was launched on Fri, 13 Aug 1965 UTC via a THOR ABLESTAR launch vehicle from the Air Force Western Test Range (AFWTR). Payload-class satellites include a variety of spacecraft equipped with specific instruments for various scientific and technological missions. These include communications satellites like Starlink; space stations such as the ISS; scientific satellites like the Hubble; Earth observation satellites from companies like Planet Labs, Umbra, and HawkEye 360; GPS; miniature CubeSats for education and research; and military/defense satellites.

Loading next visibility...
Identifier
1577, 1965-065J
Orbit
LEO
Country
Flag of USUS
Related business
Manufacturer
NRL
Mission
Spacecraft
Bus & Motor
SURCAL, Unknown motor
Mass
5 kg wet, 5 kg dry
Launch date (UTC)
1965-08-13 (60 years ago)
Launch vehicle
THOR ABLESTAR
Launch site
Air Force Western Test Range (AFWTR)
Object type
Payload
Rocket body
Debris
Shape & HBR
Unknown
Radar Cross Section
Medium (>0.1 m² and <1 m²)

Expand to show TLE details & history
Last TLE update: 10 hours ago

TLE from 10 hours ago
0 PORCUPINE 2
1 01577U 65065J   26038.04824851  .00000137  00000-0  24520-3 0  9990
2 01577  90.0193 211.7161 0071684 110.4991  16.9589 13.36232306945278
Epoch: 2026-02-07T01:09Z
TLE epoch observation values (Epoch: 2026-02-07T01:09:28.671Z)
Latitude
52.39475°
Longitude
-122.8058°
Altitude
1,080.507 km
Speed
7.342 km/s
True Right ascension
02h 06m 57s
True Declination
52° 14' 08"
Sunlit
Object was in daylight at epoch
Visualization orbit readout
Latitude
Unknown
Longitude
Unknown
Altitude
Unknown
Speed
Unknown
Apparent Right ascension
Unknown
Apparent Declination
Unknown
Sunlit
N/A
Visualization observer readout
Local Sidereal Time
12:53:57
Azimuth
Unknown
Elevation
Unknown
Doppler factor
Unknown
Orbital elements
Apogee altitude
1,174.17 km
Perigee altitude
1,066.664 km
Semi-major axis
7,498.554 km
Eccentricity
0.00717
Inclination
90.0193°
RAAN
211.7161°
Arg. of periapsis
110.4991°
True anomaly
17.20057°
Mean anomaly
16.9589°
Eccentric anomaly
17.07953°
Mean motion
3.34254 °/min
Orbital period
107.7 mins
BSTAR
0.0002452
Loading maneuver chart data...
Computing Atmospheric mass density...
Loading historical data...
Loading historical data...
Loading historical data...
Loading historical data...
Loading historical data...
Loading historical data...
Loading historical data...

Documentation

Showing up to 5 results
|